C/2004 T3 ( Siding Spring )

Japanese version
Home page
Updated on November 12, 2005

---------------------------------------------------------------------

* Profile

Discovery Date October 12, 2004
Magnitude 18.7 mag
Discoverer R. H. McNaught (Siding Spring)

* Orbital Elements

Epoch 2003 May 1.0 TT = JDT 2452760.5
T 2003 Apr. 14.99387 TT                                 MPC
q   8.8639802            (2000.0)            P               Q
z  +0.0002755      Peri.  259.66317     +0.12032441     +0.66998230
 +/-0.0000170      Node    50.39301     +0.06705228     +0.73075239
e   0.9975582      Incl.   71.95996     -0.99046758     +0.13086126

* Finding Charts

* Magnitudes Graph

        m1 = 4.0 + 5 log d + 10.0 log r

---------------------------------------------------------------------

The orbital elements are published on M.P.E.C. 2005-B40.
The charts are made with StellaNavigator Ver.2.0 for Windows (AstroArts / ASCII).
The magnitudes graphs are made with Comet for Windows.

---------------------------------------------------------------------

Copyright(C) Seiichi Yoshida (comet@aerith.net). All rights reserved.